Location: Newark
(45.1586°N, 73.9286°W)
Time: 15:50:39
(UTC+00:00)

ISS - Visible Passes

Search period start: 30 September 2020 00:00
Search period end: 10 October 2020 00:00
Orbit: 419 x 421 km, 51.6° (Epoch: 01 October)

Date Brightness Start Highest point End Pass type
(mag) Time Alt. Az. Time Alt. Az. Time Alt. Az.
30 Sep -1.1 01:17:18 10° WNW 01:18:30 20° WNW 01:18:30 20° WNW visible
01 Oct -3.2 00:30:03 10° NW 00:33:02 52° N 00:33:02 52° N visible
01 Oct -3.0 23:42:46 10° NW 23:46:01 41° NNE 23:47:35 24° ENE visible
02 Oct -0.8 01:19:39 10° WNW 01:20:33 17° WNW 01:20:33 17° WNW visible
03 Oct -3.2 00:32:15 10° WNW 00:35:10 56° W 00:35:10 56° W visible
03 Oct -3.8 23:44:56 10° WNW 23:48:19 82° NNE 23:49:49 30° ESE visible
04 Oct -0.4 01:22:36 10° W 01:22:48 11° W 01:22:48 11° W visible
04 Oct -3.5 22:57:38 10° NW 23:00:58 56° NNE 23:04:17 10° ESE visible
05 Oct -1.9 00:34:45 10° W 00:37:33 25° SW 00:37:33 25° SW visible
05 Oct -2.6 23:47:12 10° WNW 23:50:23 40° SW 23:52:23 19° SSE visible
06 Oct -3.4 22:59:45 10° WNW 23:03:06 64° SSW 23:06:26 10° SE visible
07 Oct -1.0 23:50:04 10° W 23:52:11 16° SW 23:54:19 10° S visible
08 Oct -1.5 23:02:10 10° W 23:05:00 25° SW 23:07:48 10° SSE visible
